Date String (YYYY-MM-DD hh:mm:ss) UTC,Instrument flags,Ambient pressure (hPa),Sample flow (lpm),Bypass flow (lpm),Sample temperature (°C),Ambient temperature (°C),ASC tube jacket temperature (°C),LED temperature (°C),Box temperature (°C),Sample RH (%),Span deviation,Mass concentration (μg/m³),Mass concentration (μg/m³),Mass concentration (μg/m³)
DateTimeUTC,F1_M11,P_M11,Q1_M11,Q2_M11,T1_M11,T2_M11,T3_M11,T4_M11,T5_M11,U1_M11,ZSPAN_M11,X0_M11,X2_M11,X1_M11
2022-04-24 15:00:00,,0826.5,5.01,0.00,22.0,21.4,00.0,31.0,23.8,15.5,0000.0,0007.19,0002.17,0001.56
2022-04-24 15:01:00,,0826.5,5.00,0.00,22.0,21.4,00.0,30.9,23.8,15.5,0000.0,0006.40,0002.14,0001.54
2022-04-24 15:02:00,,0826.5,5.00,0.00,22.0,21.4,00.0,30.9,23.9,15.8,0000.0,0006.21,0002.15,0001.53
2022-04-24 15:03:00,,0826.5,5.00,0.00,22.0,21.4,00.0,30.9,23.9,16.0,0000.0,0006.19,0002.15,0001.54
2022-04-24 15:04:00,,0826.5,4.99,0.00,22.0,21.5,00.0,31.0,23.9,16.0,0000.0,0006.64,0002.17,0001.57
2022-04-24 15:05:00,,0826.5,5.01,0.00,22.1,21.5,00.0,30.9,23.9,15.8,0000.0,0005.68,0002.23,0001.59
2022-04-24 15:06:00,,0826.5,5.01,0.00,22.0,21.4,00.0,30.9,23.8,15.2,0000.0,0005.35,0002.30,0001.59
2022-04-24 15:07:00,,0826.5,5.00,0.00,22.0,21.4,00.0,31.0,23.8,15.4,0000.0,0005.32,0002.34,0001.58
2022-04-24 15:08:00,,0826.5,5.00,0.00,22.0,21.5,00.0,31.0,23.9,15.6,0000.0,0005.24,0002.32,0001.56
2022-04-24 15:09:00,,0826.6,5.00,0.00,22.1,21.5,00.0,31.0,23.9,15.9,0000.0,0005.97,0002.37,0001.56
2022-04-24 15:10:00,,0826.5,5.00,0.00,22.0,21.5,00.0,31.0,23.9,15.7,0000.0,0006.48,0002.36,0001.57
2022-04-24 15:11:00,,0826.5,4.99,0.00,22.0,21.5,00.0,31.0,23.8,15.5,0000.0,0006.69,0002.37,0001.59
2022-04-24 15:12:00,,0826.5,5.00,0.00,22.0,21.5,00.0,31.0,23.8,15.1,0000.0,0006.64,0002.35,0001.58
2022-04-24 15:13:00,,0826.5,5.01,0.00,22.0,21.5,00.0,31.0,23.8,14.9,0000.0,0007.04,0002.35,0001.58
2022-04-24 15:14:00,,0826.5,5.00,0.00,22.0,21.5,00.0,31.0,23.8,15.1,0000.0,0007.45,0002.34,0001.55
2022-04-24 15:15:00,,0826.5,5.00,0.00,22.1,21.5,00.0,31.0,23.9,15.5,0000.0,0007.57,0002.26,0001.53
2022-04-24 15:16:00,,0826.5,4.99,0.00,22.1,21.5,00.0,31.0,23.9,15.6,0000.0,0007.23,0002.18,0001.51
2022-04-24 15:17:00,,0826.5,4.99,0.00,22.1,21.5,00.0,31.0,23.9,15.2,0000.0,0006.91,0002.08,0001.50
2022-04-24 15:18:00,,0826.5,5.00,0.00,22.1,21.6,00.0,31.0,23.9,14.7,0000.0,0006.92,0002.03,0001.49
2022-04-24 15:19:00,,0826.5,5.00,0.00,22.1,21.6,00.0,31.0,23.9,14.9,0000.0,0007.40,0001.99,0001.47
2022-04-24 15:20:00,,0826.5,5.00,0.00,22.1,21.6,00.0,31.0,23.9,15.0,0000.0,0007.03,0001.98,0001.45
2022-04-24 15:21:00,,0826.5,5.00,0.00,22.1,21.6,00.0,31.0,23.9,15.1,0000.0,0006.63,0001.97,0001.44
2022-04-24 15:22:00,,0826.6,5.01,0.00,22.1,21.6,00.0,31.0,23.9,15.1,0000.0,0006.34,0001.98,0001.42
2022-04-24 15:23:00,,0826.5,4.98,0.00,22.1,21.6,00.0,31.0,23.9,15.0,0000.0,0006.64,0002.00,0001.41
2022-04-24 15:24:00,,0826.6,5.01,0.00,22.1,21.6,00.0,31.0,23.9,15.1,0000.0,0007.30,0001.98,0001.39
2022-04-24 15:25:00,,0826.6,5.00,0.00,22.1,21.6,00.0,31.0,23.9,15.0,0000.0,0008.17,0001.95,0001.39
2022-04-24 15:26:00,,0826.6,5.00,0.00,22.1,21.6,00.0,31.0,23.9,14.6,0000.0,0007.67,0001.92,0001.38
2022-04-24 15:27:00,,0826.6,5.01,0.00,22.1,21.6,00.0,31.0,24.0,14.5,0000.0,0007.51,0001.92,0001.36
2022-04-24 15:28:00,,0826.6,4.99,0.00,22.1,21.6,00.0,31.1,24.0,14.7,0000.0,0007.60,0001.92,0001.34
2022-04-24 15:29:00,,0826.6,5.00,0.00,22.2,21.6,00.0,31.1,24.0,14.9,0000.0,0008.05,0001.90,0001.33
2022-04-24 15:30:00,,0826.6,4.99,0.00,22.2,21.6,00.0,31.1,24.0,14.9,0000.0,0007.79,0001.90,0001.32
2022-04-24 15:31:00,,0826.6,5.00,0.00,22.2,21.5,00.0,31.1,24.0,14.7,0000.0,0007.72,0001.84,0001.29
2022-04-24 15:32:00,,0826.6,5.01,0.00,22.2,21.6,00.0,31.1,23.9,14.7,0000.0,0007.60,0001.76,0001.26
2022-04-24 15:33:00,,0826.6,5.01,0.00,22.2,21.6,00.0,31.1,23.9,14.6,0000.0,0007.52,0001.67,0001.23
2022-04-24 15:34:00,,0826.6,5.01,0.00,22.2,21.5,00.0,31.1,23.9,14.5,0000.0,0007.35,0001.62,0001.20
2022-04-24 15:35:00,,0826.6,5.01,0.00,22.2,21.5,00.0,31.1,23.9,14.5,0000.0,0006.23,0001.59,0001.18
2022-04-24 15:36:00,,0826.7,4.98,0.00,22.1,21.5,00.0,31.1,23.9,14.3,0000.0,0004.30,0001.58,0001.16
2022-04-24 15:37:00,,0826.7,5.00,0.00,22.1,21.5,00.0,31.1,23.9,14.3,0000.0,0004.19,0001.59,0001.14
2022-04-24 15:38:00,,0826.7,5.01,0.00,22.1,21.5,00.0,31.1,24.0,14.3,0000.0,0004.09,0001.54,0001.13
2022-04-24 15:39:00,,0826.6,5.00,0.00,22.1,21.5,00.0,31.1,24.0,14.6,0000.0,0003.88,0001.49,0001.11
2022-04-24 15:40:00,,0826.7,5.00,0.00,22.1,21.5,00.0,31.1,23.9,14.8,0000.0,0002.62,0001.44,0001.09
2022-04-24 15:41:00,,0826.7,5.00,0.00,22.1,21.4,00.0,31.1,23.9,14.5,0000.0,0002.35,0001.39,0001.08
2022-04-24 15:42:00,,0826.7,4.98,0.00,22.1,21.5,00.0,31.1,23.9,14.5,0000.0,0002.30,0001.39,0001.08
2022-04-24 15:43:00,,0826.7,5.00,0.00,22.1,21.5,00.0,31.1,23.9,14.5,0000.0,0002.35,0001.41,0001.08
2022-04-24 15:44:00,,0826.7,5.00,0.00,22.1,21.6,00.0,31.1,24.0,14.4,0000.0,0002.37,0001.46,0001.09
2022-04-24 15:45:00,,0826.7,5.01,0.00,22.2,21.6,00.0,31.1,24.0,14.4,0000.0,0002.34,0001.49,0001.10
2022-04-24 15:46:00,,0826.7,4.98,0.00,22.2,21.6,00.0,31.1,24.0,14.5,0000.0,0002.34,0001.52,0001.10
2022-04-24 15:47:00,,0826.7,5.01,0.00,22.2,21.7,00.0,31.1,24.1,14.3,0000.0,0002.25,0001.48,0001.11
2022-04-24 15:48:00,,0826.7,5.00,0.00,22.2,21.7,00.0,31.1,24.1,14.2,0000.0,0002.26,0001.47,0001.11
2022-04-24 15:49:00,,0826.8,5.00,0.00,22.2,21.7,00.0,31.1,24.1,14.2,0000.0,0002.33,0001.49,0001.12
2022-04-24 15:50:00,,0826.8,5.00,0.00,22.2,21.7,00.0,31.1,24.1,14.2,0000.0,0002.58,0001.56,0001.14
2022-04-24 15:51:00,,0826.8,5.00,0.00,22.3,21.7,00.0,31.1,24.2,14.3,0000.0,0002.74,0001.64,0001.16
2022-04-24 15:52:00,,0826.8,5.00,0.00,22.3,21.8,00.0,31.1,24.2,14.2,0000.0,0003.09,0001.70,0001.17
2022-04-24 15:53:00,,0826.8,4.99,0.00,22.3,21.8,00.0,31.2,24.2,14.3,0000.0,0003.88,0001.67,0001.16
2022-04-24 15:54:00,,0826.8,5.00,0.00,22.3,21.8,00.0,31.2,24.2,14.1,0000.0,0003.89,0001.67,0001.17
2022-04-24 15:55:00,,0826.8,5.00,0.00,22.3,21.8,00.0,31.2,24.3,13.9,0000.0,0003.73,0001.64,0001.17
2022-04-24 15:56:00,,0826.8,5.00,0.00,22.4,21.8,00.0,31.2,24.3,13.9,0000.0,0003.69,0001.62,0001.17
2022-04-24 15:57:00,,0826.8,5.00,0.00,22.4,21.9,00.0,31.2,24.3,14.0,0000.0,0003.63,0001.60,0001.17
2022-04-24 15:58:00,,0826.8,5.00,0.00,22.4,21.9,00.0,31.2,24.3,14.0,0000.0,0003.72,0001.64,0001.19
2022-04-24 15:59:00,,0826.8,5.00,0.00,22.4,21.9,00.0,31.2,24.3,13.8,0000.0,0003.84,0001.68,0001.18
